Weather History for Lincoln, NE

Change the Weather History Date:

Wednesday, September 25, 2013

  Actual Average Record
Temperature  
Mean Temperature 64 °F 62 °F  
Max Temperature 80 °F 75 °F 93 °F (1990)
Min Temperature 47 °F 49 °F 29 °F (1975)
Degree Days  
Heating Degree Days 1 5  
Month to date heating degree days 21 62  
Since 1 July heating degree days 24 68  
Cooling Degree Days 0 2  
Month to date cooling degree days 175 114  
Year to date cooling degree days 1190 1149  
Growing Degree Days 13 (Base 50)    
Moisture  
Dew Point 52 °F    
Average Humidity 72    
Maximum Humidity 96    
Minimum Humidity 48    
Precipitation  
Precipitation 0.00 in 0.09 in 2.32 in (1934)
Month to date precipitation 1.75 2.59  
Year to date precipitation 22.20 24.17  
Snow  
Snow 0.00 in 0.00 in - ()
Month to date snowfall 0.0 0.0  
Since 1 July snowfall 0.0 0.0  
Snow Depth 0.00 in    
Sea Level Pressure  
Sea Level Pressure 29.87 in    
Wind  
Wind Speed 10 mph (ESE)    
Max Wind Speed 22 mph    
Max Gust Speed 28 mph    
Visibility 6 miles    
Events Fog    
T = Trace of Precipitation, MM = Missing Value Source: NWS Daily Summary

Daily Weather History Graph

Daily Weather History Graph

Search for Another Location

Airport:

Trip Planner

Search our weather history database for the weather conditions in past years. The results will help you decide how hot, cold, wet, or windy it might be!

Date:

Astronomy

Sep. 25, 2013 Rise Set
Actual Time 7:17 AM CDT 7:18 PM CDT
Civil Twilight 6:50 AM CDT 7:45 PM CDT
Nautical Twilight 6:18 AM CDT 8:17 PM CDT
Astronomical Twilight 5:46 AM CDT 8:50 PM CDT
Moon 11:24 PM CDT (9/25) 1:26 PM CDT (9/25)
Length of Visible Light 12h 55m
Length of Day
12h 00m
Waning Gibbous, 64% of the Moon is Illuminated
Sep 25
Waning Gibbous
Sep 26
Last Quarter
Oct 4
New
Oct 11
First Quarter
Oct 18
Full

Hourly Weather History & Observations

Time (CDT) Temp. Dew Point Humidity Pressure Visibility Wind Dir Wind Speed Gust Speed Precip Events Conditions
12:54 AM 53.1 °F 51.1 °F 93% 29.92 in 7.0 mi North 4.6 mph - N/A   Clear
1:54 AM 55.0 °F 52.0 °F 89% 29.91 in 7.0 mi Calm Calm - N/A   Clear
2:54 AM 54.0 °F 52.0 °F 93% 29.91 in 6.0 mi Calm Calm - N/A   Clear
3:54 AM 50.0 °F 48.0 °F 93% 29.92 in 6.0 mi Calm Calm - N/A   Clear
4:54 AM 50.0 °F 48.9 °F 96% 29.92 in 4.0 mi North 4.6 mph - N/A   Clear
5:54 AM 51.1 °F 50.0 °F 96% 29.92 in 5.0 mi Calm Calm - N/A   Clear
6:18 AM 50.0 °F 50.0 °F 100% 29.93 in 1.5 mi Calm Calm - N/A   Partly Cloudy
6:20 AM 48.2 °F 48.2 °F 100% 29.93 in 0.8 mi Calm Calm - N/A   Mist
6:30 AM 48.2 °F 48.2 °F 100% 29.92 in 1.5 mi Calm Calm - N/A   Partly Cloudy
6:42 AM 48.2 °F 46.4 °F 93% 29.93 in 1.2 mi North 3.5 mph - N/A   Mostly Cloudy
6:51 AM 48.2 °F 48.2 °F 100% 29.93 in 2.0 mi North 3.5 mph - N/A   Partly Cloudy
6:52 AM 48.2 °F 48.2 °F 100% 29.93 in 3.0 mi North 3.5 mph - N/A   Partly Cloudy
6:54 AM 48.0 °F 46.9 °F 96% 29.92 in 5.0 mi North 3.5 mph - N/A   Partly Cloudy
7:08 AM 48.2 °F 46.4 °F 93% 29.92 in 1.8 mi North 3.5 mph - N/A   Scattered Clouds
7:10 AM 48.2 °F 46.4 °F 93% 29.92 in 1.0 mi North 3.5 mph - N/A   Mist
7:14 AM 48.2 °F 46.4 °F 93% 29.92 in 0.5 mi NNW 3.5 mph - N/A Fog Fog
7:35 AM 48.2 °F 46.4 °F 93% 29.93 in 0.2 mi NNE 3.5 mph - N/A Fog Fog
7:44 AM 48.2 °F 48.2 °F 100% 29.93 in 0.2 mi Calm Calm - N/A Fog Fog
7:54 AM 50.0 °F 48.9 °F 96% 29.93 in 0.2 mi Calm Calm - N/A Fog Fog
7:57 AM 50.0 °F 50.0 °F 100% 29.93 in 1.0 mi Calm Calm - N/A   Mist
8:05 AM 51.8 °F 50.0 °F 94% 29.93 in 3.0 mi Calm Calm - N/A   Mostly Cloudy
8:18 AM 51.8 °F 51.8 °F 100% 29.92 in 3.0 mi Calm Calm - N/A   Scattered Clouds
8:54 AM 54.0 °F 52.0 °F 93% 29.92 in 5.0 mi Calm Calm - N/A   Partly Cloudy
9:54 AM 61.0 °F 55.9 °F 83% 29.93 in 5.0 mi Calm Calm - N/A   Haze
10:54 AM 68.0 °F 57.9 °F 70% 29.91 in 8.0 mi SSE 6.9 mph - N/A   Clear
11:54 AM 73.9 °F 57.9 °F 57% 29.88 in 10.0 mi SE 12.7 mph 20.7 mph N/A   Clear
12:54 PM 75.9 °F 59.0 °F 56% 29.86 in 10.0 mi SSE 11.5 mph - N/A   Scattered Clouds
1:54 PM 77.0 °F 57.9 °F 52% 29.83 in 10.0 mi SE 17.3 mph - N/A   Clear
2:54 PM 78.1 °F 57.0 °F 48% 29.80 in 10.0 mi SE 13.8 mph - N/A   Clear
3:54 PM 79.0 °F 57.9 °F 48% 29.77 in 10.0 mi SSE 18.4 mph 21.9 mph N/A   Clear
4:54 PM 79.0 °F 57.0 °F 47% 29.76 in 10.0 mi SSE 15.0 mph - N/A   Clear
5:54 PM 78.1 °F 57.0 °F 48% 29.74 in 10.0 mi SE 15.0 mph - N/A   Clear
6:54 PM 75.9 °F 55.9 °F 50% 29.73 in 10.0 mi SE 16.1 mph - N/A   Clear
7:54 PM 73.0 °F 57.0 °F 57% 29.73 in 10.0 mi SE 15.0 mph - N/A   Clear
8:54 PM 72.0 °F 57.0 °F 59% 29.73 in 10.0 mi SE 15.0 mph - N/A   Clear
9:54 PM 69.1 °F 57.9 °F 68% 29.76 in 10.0 mi SSE 12.7 mph - N/A   Clear
10:54 PM 68.0 °F 59.0 °F 73% 29.76 in 10.0 mi SSE 16.1 mph - N/A   Clear
11:54 PM 66.9 °F 59.0 °F 76% 29.75 in 10.0 mi SSE 16.1 mph - N/A   Clear